When you browse on this site, cookies collect data to enhance your experience and personalize the content and advertising you see.
Visit our Privacy Policy to learn more. By continuing to use the site, you agree to this use of cookies and data.
  • In Hungary
  • List of Countries
  • For 7 days
  • Water Temperature
  • Satellite Maps
  • Weather Map
  • News
  • Weather Widgets
  • user-avatar
    Login

    Hourly Weather Sharan

    Today, 23 April, Tuesday

    Time Temperature Precipitation Wind Pressure Humidity
    00:00 +18°C° 0 mm 3 mps 588 mmHg 29%
    01:00 +17°C° 0 mm 2 mps 588 mmHg 31%
    02:00 +16°C° 0 mm 1 mps 588 mmHg 33%
    03:00 +16°C° 0 mm 1 mps 588 mmHg 33%
    04:00 +16°C° 0 mm 1 mps 588 mmHg 34%
    05:00 +15°C° 0 mm 1 mps 587 mmHg 34%
    06:00 +16°C° 0 mm 2 mps 588 mmHg 31%
    07:00 +17°C° 0 mm 2 mps 588 mmHg 28%
    08:00 +18°C° 0 mm 2 mps 589 mmHg 26%
    09:00 +20°C° 0 mm 4 mps 590 mmHg 25%
    10:00 +21°C° 0 mm 6 mps 590 mmHg 24%
    11:00 +23°C° 0 mm 7 mps 591 mmHg 23%
    12:00 +23°C° 0 mm 8 mps 591 mmHg 22%
    13:00 +24°C° 0 mm 9 mps 591 mmHg 21%
    14:00 +26°C° 0 mm 9 mps 591 mmHg 21%
    15:00 +26°C° 0 mm 9 mps 591 mmHg 21%
    16:00 +24°C° 0 mm 9 mps 590 mmHg 21%
    17:00 +24°C° 0 mm 10 mps 590 mmHg 22%
    18:00 +23°C° 0 mm 8 mps 590 mmHg 25%
    19:00 +22°C° 0 mm 7 mps 590 mmHg 28%
    20:00 +21°C° 0 mm 6 mps 589 mmHg 32%
    21:00 +20°C° 0 mm 5 mps 589 mmHg 34%
    22:00 +19°C° 0 mm 4 mps 589 mmHg 37%
    23:00 +19°C° 0 mm 3 mps 589 mmHg 40%

    Tomorrow, 24 April, Wednesday

    Time Temperature Precipitation Wind Pressure Humidity
    00:00 +18°C° 0.7 mm 3 mps 589 mmHg 45%
    01:00 +17°C° 0.7 mm 4 mps 589 mmHg 50%
    02:00 +15°C° 0.7 mm 4 mps 588 mmHg 55%
    03:00 +15°C° 0.1 mm 4 mps 588 mmHg 55%
    04:00 +15°C° 0.1 mm 4 mps 588 mmHg 54%
    05:00 +15°C° 0.1 mm 4 mps 588 mmHg 53%
    06:00 +16°C° 0 mm 5 mps 588 mmHg 50%
    07:00 +17°C° 0 mm 5 mps 589 mmHg 47%
    08:00 +17°C° 0 mm 6 mps 589 mmHg 44%
    09:00 +20°C° 0 mm 7 mps 590 mmHg 40%
    10:00 +21°C° 0 mm 8 mps 590 mmHg 36%
    11:00 +22°C° 0 mm 10 mps 590 mmHg 32%
    12:00 +22°C° 0 mm 10 mps 590 mmHg 31%
    13:00 +22°C° 0 mm 10 mps 590 mmHg 30%
    14:00 +22°C° 0 mm 10 mps 589 mmHg 29%
    15:00 +23°C° 0 mm 11 mps 589 mmHg 26%
    16:00 +23°C° 0 mm 11 mps 589 mmHg 23%
    17:00 +23°C° 0 mm 12 mps 588 mmHg 20%
    18:00 +21°C° 0 mm 11 mps 588 mmHg 23%
    19:00 +19°C° 0 mm 9 mps 588 mmHg 25%
    20:00 +17°C° 0 mm 8 mps 588 mmHg 28%
    21:00 +17°C° 0 mm 7 mps 587 mmHg 30%
    22:00 +16°C° 0 mm 6 mps 587 mmHg 31%
    23:00 +15°C° 0 mm 5 mps 587 mmHg 33%

    Day after tomorrow, 25 April, Thursday

    Time Temperature Precipitation Wind Pressure Humidity
    00:00 +14°C° 0 mm 5 mps 587 mmHg 34%
    01:00 +13°C° 0 mm 5 mps 586 mmHg 36%
    02:00 +12°C° 0 mm 5 mps 586 mmHg 38%
    03:00 +12°C° 0 mm 4 mps 586 mmHg 38%
    04:00 +11°C° 0 mm 4 mps 585 mmHg 38%
    05:00 +11°C° 0 mm 4 mps 585 mmHg 39%
    06:00 +10°C° 0 mm 5 mps 586 mmHg 35%
    07:00 +11°C° 0 mm 6 mps 587 mmHg 31%
    08:00 +13°C° 0 mm 6 mps 587 mmHg 27%
    09:00 +14°C° 0 mm 7 mps 588 mmHg 23%
    10:00 +16°C° 0 mm 8 mps 589 mmHg 19%
    11:00 +17°C° 0 mm 8 mps 590 mmHg 16%
    12:00 +18°C° 0 mm 9 mps 589 mmHg 16%
    13:00 +19°C° 0 mm 10 mps 589 mmHg 16%
    14:00 +19°C° 0 mm 10 mps 589 mmHg 16%
    15:00 +19°C° 0 mm 10 mps 589 mmHg 16%
    16:00 +19°C° 0 mm 10 mps 588 mmHg 17%
    17:00 +19°C° 0 mm 11 mps 588 mmHg 17%
    18:00 +17°C° 0 mm 9 mps 588 mmHg 19%
    19:00 +16°C° 0 mm 8 mps 588 mmHg 22%
    20:00 +15°C° 0 mm 7 mps 588 mmHg 24%
    21:00 +14°C° 0 mm 7 mps 588 mmHg 26%
    22:00 +13°C° 0 mm 6 mps 588 mmHg 28%
    23:00 +12°C° 0 mm 5 mps 588 mmHg 30%

    26 April, Friday

    Time Temperature Precipitation Wind Pressure Humidity
    00:00 +12°C° 0 mm 4 mps 587 mmHg 32%
    01:00 +11°C° 0 mm 4 mps 587 mmHg 34%
    02:00 +11°C° 0 mm 3 mps 586 mmHg 35%
    03:00 +10°C° 0 mm 3 mps 586 mmHg 36%
    04:00 +10°C° 0 mm 3 mps 586 mmHg 38%
    05:00 +9°C° 0 mm 3 mps 586 mmHg 39%
    06:00 +10°C° 0 mm 3 mps 586 mmHg 37%
    07:00 +10°C° 0 mm 3 mps 587 mmHg 34%
    08:00 +11°C° 0 mm 3 mps 587 mmHg 32%
    09:00 +13°C° 0 mm 3 mps 588 mmHg 28%
    10:00 +14°C° 0 mm 3 mps 589 mmHg 24%
    11:00 +16°C° 0 mm 3 mps 589 mmHg 20%
    12:00 +17°C° 0 mm 4 mps 589 mmHg 18%
    13:00 +18°C° 0 mm 4 mps 589 mmHg 16%
    14:00 +19°C° 0 mm 5 mps 589 mmHg 14%
    15:00 +20°C° 0 mm 5 mps 589 mmHg 14%
    16:00 +20°C° 0 mm 6 mps 589 mmHg 13%
    17:00 +20°C° 0 mm 6 mps 589 mmHg 13%
    18:00 +19°C° 0 mm 6 mps 589 mmHg 15%
    19:00 +17°C° 0 mm 5 mps 589 mmHg 17%
    20:00 +16°C° 0 mm 5 mps 589 mmHg 19%
    21:00 +15°C° 0 mm 4 mps 588 mmHg 21%
    22:00 +14°C° 0 mm 3 mps 588 mmHg 23%
    23:00 +14°C° 0 mm 3 mps 588 mmHg 26%

    27 April, Saturday

    Time Temperature Precipitation Wind Pressure Humidity
    00:00 +13°C° 0 mm 3 mps 588 mmHg 26%
    01:00 +13°C° 0 mm 3 mps 588 mmHg 27%
    02:00 +12°C° 0 mm 3 mps 587 mmHg 28%
    03:00 +12°C° 0 mm 3 mps 587 mmHg 29%
    04:00 +12°C° 0 mm 2 mps 587 mmHg 29%
    05:00 +12°C° 0 mm 2 mps 586 mmHg 30%
    06:00 +11°C° 0 mm 3 mps 587 mmHg 28%
    07:00 +12°C° 0 mm 3 mps 588 mmHg 26%
    08:00 +13°C° 0 mm 3 mps 588 mmHg 24%
    09:00 +14°C° 0 mm 3 mps 589 mmHg 22%
    10:00 +16°C° 0 mm 3 mps 589 mmHg 20%
    11:00 +18°C° 0 mm 4 mps 590 mmHg 18%
    12:00 +19°C° 0 mm 4 mps 589 mmHg 17%
    13:00 +19°C° 0 mm 5 mps 589 mmHg 15%
    14:00 +20°C° 0 mm 6 mps 589 mmHg 14%
    15:00 +20°C° 0 mm 7 mps 589 mmHg 14%
    16:00 +21°C° 0 mm 7 mps 589 mmHg 14%
    17:00 +21°C° 0 mm 8 mps 588 mmHg 14%
    18:00 +20°C° 0 mm 8 mps 588 mmHg 17%
    19:00 +18°C° 0 mm 8 mps 588 mmHg 19%
    20:00 +17°C° 0 mm 8 mps 588 mmHg 21%
    21:00 +16°C° 0 mm 7 mps 588 mmHg 23%
    22:00 +15°C° 0 mm 7 mps 588 mmHg 25%
    23:00 +14°C° 0 mm 6 mps 588 mmHg 26%

    28 April, Sunday

    Time Temperature Precipitation Wind Pressure Humidity
    00:00 +13°C° 0 mm 5 mps 587 mmHg 28%
    01:00 +13°C° 0 mm 4 mps 587 mmHg 30%
    02:00 +12°C° 0 mm 3 mps 586 mmHg 32%
    03:00 +12°C° 0 mm 3 mps 586 mmHg 34%
    04:00 +11°C° 0 mm 3 mps 586 mmHg 35%
    05:00 +10°C° 0 mm 2 mps 586 mmHg 37%
    06:00 +12°C° 0 mm 2 mps 586 mmHg 34%
    07:00 +13°C° 0 mm 2 mps 587 mmHg 32%
    08:00 +14°C° 0 mm 2 mps 587 mmHg 29%
    09:00 +15°C° 0 mm 2 mps 588 mmHg 26%
    10:00 +16°C° 0 mm 2 mps 588 mmHg 23%
    11:00 +17°C° 0 mm 2 mps 589 mmHg 20%
    12:00 +18°C° 0 mm 3 mps 589 mmHg 18%
    13:00 +19°C° 0 mm 3 mps 589 mmHg 16%
    14:00 +20°C° 0 mm 4 mps 589 mmHg 14%
    15:00 +20°C° 0 mm 4 mps 588 mmHg 14%
    16:00 +21°C° 0 mm 5 mps 588 mmHg 14%
    17:00 +21°C° 0 mm 5 mps 588 mmHg 14%
    18:00 +20°C° 0 mm 6 mps 588 mmHg 16%
    19:00 +18°C° 0 mm 7 mps 588 mmHg 18%
    20:00 +17°C° 0 mm 7 mps 588 mmHg 20%
    21:00 +16°C° 0 mm 6 mps 588 mmHg 22%
    22:00 +15°C° 0 mm 5 mps 588 mmHg 23%
    23:00 +14°C° 0 mm 4 mps 588 mmHg 25%
    Show more